Weather Roundup
Issued by NWS Corpus Christi, TX

Home | Current Version | Previous Version | Text Only | Print | Product List | Glossary On
Versions: 1 2 3 4 5 6 7 8 9 10 11 12 13 14 15 16 17 18 19 20 21 22 23 24 25 26 27 28 29 30 31 32 33 34 35 36 37 38 39 40 41 42 43 44 45 46 47 48 49 50
000
ASUS44 KCRP 240610
HRRCRP

SOUTH TEXAS REGIONAL WEATHER ROUNDUP
NATIONAL WEATHER SERVICE CORPUS CHRISTI TX
100 AM CDT TUE MAY 24 2016


TXZ229>244-240700-
...CORPUS CHRISTI AREA OBSERVATIONS...

CITY           SKY/WX    TMP DP  RH WIND       PRES   REMARKS
CORPUS CHRISTI CLOUDY    80  75  84 SE9       29.88R
NAS CORPUS CHR CLOUDY    80  77  90 SE15      29.88R
ROCKPORT       MOCLDY    80  75  84 SE10      29.89R
KINGSVILLE NAS CLOUDY    81  79  94 SE10      29.89R
ALICE          CLOUDY    77  75  93 SE7       29.89R
FALFURRIAS     CLOUDY    80  75  85 SE5       29.89R
$$

...VICTORIA AREA OBSERVATIONS...

CITY           SKY/WX    TMP DP  RH WIND       PRES   REMARKS
VICTORIA       PTCLDY    75  73  93 SE5       29.90S
BEEVILLE       MOCLDY    76  76 100 SE5       29.90S
PLEASANTON     CLOUDY    76  73  88 SE7       29.92R
SAN ANTONIO    LGT RAIN  76  73  91 S14       29.93R
$$

...LAREDO AREA OBSERVATIONS...

CITY           SKY/WX    TMP DP  RH WIND       PRES   REMARKS
LAREDO         CLOUDY    80  73  79 SE13      29.92S
COTULLA        CLOUDY    79  73  82 SE17G23   29.86S
DEL RIO        CLOUDY    80  74  81 E18G24    29.82R
MCALLEN        CLOUDY    82  76  81 SE13      29.87S
HEBBRONVILLE   CLOUDY    78  73  85 SE12      29.92R
$$

...OTHER TEXAS OBSERVATIONS...

CITY           SKY/WX    TMP DP  RH WIND       PRES   REMARKS
BROWNSVILLE    CLOUDY    80  76  87 SE10      29.87S
HOUSTON        MOCLDY    73  72  96 E6        29.93F
COL. STATION   PTCLDY    73  72  96 SE5       29.95R
AUSTIN         CLOUDY    76  71  85 SE9       29.92R
WACO           CLOUDY    77  70  79 SE14      29.90S
FORT WORTH     CLOUDY    78  69  73 S12       29.89F
WICHITA FALLS  CLOUDY    74  70  87 E8        29.87F
LUBBOCK        PTCLDY    72  68  87 S20       29.86R
EL PASO        PTCLDY    80  19  10 W24G36    29.89S
$$

...MARINE OBSERVATIONS...

STATION/POSITION TIME  SKY/WX   TEMP    WIND        PRES    VSBY  WAVE   SWELL
                                AIR SEA DIR/SP/G                  HT/PER HT/PER
                 (UTC)          (F)     (DEG/KT/KT) (MB)    (MI)  (FT/S) (FT/S)
PORT ARANSAS     0600            80 80  140/ 16/ 18 1012.4R
BUOY 90 E PORT A 0550            80 80  110/ 14/ 16 1012.2F         3/ 6   2/ 7
BUOY 45 SE BAFFI 0550            80 80  150/ 16/ 17 1011.0F         4/ 7   2/ 7
BUOY 200 E PT IS 0550                                 N/A           4/ 6   2/ 8
BUOY 15 E GALVES 0550            78 79  120/ 14/ 16 1013.2R         3/ 7   2/ 7
$$



USA.gov is the U.S. government's official web portal to all federal, state and local government web resources and services.